User: anonymous   Login
Location: Bruderhein
(53.8035°N, 112.9265°W)
Time: 09:40:42
(UTC+00:00)
Language:

FENGYUN 1C DEB - Orbit

View from above orbital plane
View from above orbital plane
View from above satellite
View from above satellite

Ground track
Ground track

The orbit data is extracted from the following two-line orbital elements,

1 32339U 99025CYG 23332.41346377  .00006852  00000-0  24919-2 0  9991
2 32339  98.6057  37.6473 0045577 117.6258 242.9564 14.32931594539746
Epoch (UTC): 28 November 2023 09:55:23
Eccentricity: 0.0045577
inclination: 98.6057°
perigee height: 749 km
apogee height: 814 km
right ascension of ascending node: 37.6473°
argument of perigee: 117.6258°
revolutions per day: 14.32931594
mean anomaly at epoch: 242.9564°
orbit number at epoch: 53974

The dashed part of the orbit path shows where the satellite is in the earth's shadow,  

DLR